NOAA 16 DEB, 41304

Orbit data source: Space-Track

NOAA 16 DEB, 41304 is space debris in SSO originally from a launch on Thu, 21 Sep 2000 UTC launched from the Air Force Western Test Range (AFWTR). Debris objects in space refer to the collection of defunct objects orbiting the Earth. Examples of debris include non-operational satellites, rocket bodies, and fragments generated from explosions, collisions, or faulty payload assembly.

Loading next visibility...
Identifier
41304, 2000-055HG
Orbit
SSO
Country
Flag of USUS
Related business
Manufacturer
Unknown
Mission
Spacecraft
Bus & Motor
Unknown
Mass
Unknown
Launch date (UTC)
2000-09-21 (26 years ago)
Launch vehicle
Unknown
Launch site
Air Force Western Test Range (AFWTR)
Object type
Payload
Rocket body
Debris
Shape & HBR
Unknown shape, 0.1 m
Radar Cross Section
Medium (>0.1 m² and <1 m²)

Expand to show TLE details & history
Last TLE update: 1 day ago

TLE from 1 day ago
0 NOAA 16 DEB
1 41304U 00055HG  26171.20717730  .00004781  00000-0  16247-2 0  9998
2 41304  99.0773 338.7731 0029363 261.7792  98.0062 14.36860159540937
Epoch: 2026-06-20T04:58Z
TLE epoch observation values (Epoch: 2026-06-20T04:58:20.118Z)
Latitude
-0.00004°
Longitude
-4.23583°
Altitude
774.801 km
Speed
7.465 km/s
True Right ascension
22h 35m 05s
True Declination
0° 00' 00"
Sunlit
Object was in daylight at epoch
Visualization orbit readout
Latitude
Unknown
Longitude
Unknown
Altitude
Unknown
Speed
Unknown
Apparent Right ascension
Unknown
Apparent Declination
Unknown
Sunlit
N/A
Visualization observer readout
Local Sidereal Time
03:28:29
Azimuth
Unknown
Elevation
Unknown
Doppler factor
Unknown
Orbital elements
Apogee altitude
787.023 km
Perigee altitude
745.068 km
Semi-major axis
7,144.183 km
Eccentricity
0.00294
Inclination
99.0773°
RAAN
338.7731°
Arg. of periapsis
261.7792°
True anomaly
98.33922°
Mean anomaly
98.0062°
Eccentric anomaly
98.17273°
Mean motion
3.5943 °/min
Orbital period
100.16 mins
BSTAR
0.0016247
Loading maneuver chart data...
Computing Atmospheric mass density...
Loading historical data...
Loading historical data...
Loading historical data...
Loading historical data...
Loading historical data...
Loading historical data...
Loading historical data...

Documentation

Showing up to 5 results
|